Погода в Гере

Германия     50°52′52″N   12°05′09″E
темп.,
°C
ветер,
м/с
пор.,
м/с
влажн.,
%
обл.,
%
осадки,
мм/ч
давл.,
гПа
погр.,
м
21 апреля, ср
ср2123:00+7юз22896 1.7 101511
02:00+6зюз22910 2.1 101510
05:00+5зюз22910 0.0 101513
08:00+8з12860 0.0 1015134
11:00+12сз34681 0.0 1015825
14:00+14ссз455128 0.1 10141966
17:00+14с46466 0.0 10141807
20:00+9ссз5107253 0.0 1015275
22 апреля, чт
чт2223:00+7ссз6965100 0.0 1018749
02:00+2сз3775100 0.0 1020251
05:000з378598 0.0 1021152
08:00+2з697599 0.0 1021533
11:00+6зсз6859100 0.0 10221358
14:00+9зсз7104699 0.0 10212142
17:00+9сз795998 0.2 10211639
20:00+6зсз5107613 0.6 1023435
23 апреля, пт
пт2323:00+2з37885 0.1 1025148
02:00+1з49935 0.1 1025189
05:00+1з510955 0.0 1025280
08:00+3з610885 0.0 1026472
11:00+7зсз796497 0.0 10261376
14:00+10сз785488 0.1 10261838
17:00+9сз686089 0.1 10261606
20:00+6ссз377413 0.1 1027282
24 апреля, сб
сб2423:00+3зюз22865 0.0 102813
02:00+2з22915 0.0 102822
05:000з22935 0.0 102821
08:00+3зсз24845 0.0 1028264
11:00+7сз456587 0.0 10271262
14:00+8ссз566194 0.1 10271437
17:00+8сз3663100 0.0 10271203
20:00+6з347744 0.1 102777
25 апреля, вс
вс2523:00+2с22865 0.0 102913
02:00−1с2286100 0.0 102916
05:00−3ссз118699 0.0 102910
08:00+1с226998 0.0 1030221
11:00+6св22542 0.0 1029895
14:00+9св32469 0.0 10271165
17:00+9св33475 0.0 10251127
20:00+5всв226862 0.0 102516